Flag for Benin Weather past 2 weeks in Porto Novo, Benin

Now
79 °F

Thunderstorms. Broken clouds.


Feels Like: 83 °F
Forecast: 75 / 83 °F
Wind: 2 mph from North

Location: Cotonou Airport

Current Time: Sep 22, 2014 at 10:20:16 AM

Latest Report: Sep 22, 2014 at 10:00 AM


Visibility: N/A

Pressure: 29.98 "Hg

Humidity: 94%

Dew point: 77 °F

Location of Porto NovoLocation

Historic Weather in Porto Novo — Graph

°F

Porto Novo temperature yesterday

Maximum temperature yesterday: 82 °F (at 2:00 PM)
Minimum temperature yesterday: 75 °F (at 1:00 AM)
Average temperature yesterday: 78 °F

Past Weeks' High & Low Weather Summary

 TemperatureHumidityPressure
High84 °F (Sep 11, 1:00 PM)100% (Sep 7, 9:00 AM)30.01 "Hg (Sep 7, 9:00 AM)
Low72 °F (Sep 12, 5:00 AM)79% (Sep 11, 1:00 PM)29.80 "Hg (Sep 11, 5:00 PM)
Average78 °F96%29.89 "Hg
* Reported Sep 7 9:00 AM — Sep 22 9:00 AM, Porto Novo, Weather by CustomWeather, © 2014

Note: Actual official high and low records may vary slightly from our data, if they occured in-between our weather recording intervals... More about our weather records

Advertising

Porto Novo weather history for previous 24 hours

 ConditionsComfort  
Time TempWeatherWind HumidityBarometerVisibility
9:00 AM
Sep 22
77 °FBroken clouds.3 mph100%29.95 "HgN/A
8:00 AM77 °FBroken clouds.3 mph100%29.92 "Hg4 mi
7:00 AM75 °FFog.No wind100%29.92 "Hg2 mi
6:00 AM75 °FPartly cloudy.1 mph100%29.89 "Hg5 mi
5:00 AM77 °FPartly cloudy.1 mph100%29.89 "Hg5 mi
4:00 AM77 °FPassing clouds.5 mph100%29.86 "Hg5 mi
3:00 AM77 °FPassing clouds.5 mph100%29.86 "Hg5 mi
2:00 AM77 °FPartly cloudy.5 mph100%29.86 "HgN/A
1:00 AM77 °FPartly cloudy.8 mph100%29.89 "HgN/A
12:00 AM77 °FPartly cloudy.10 mph100%29.92 "HgN/A
10:00 PM
Sep 21
77 °FPassing clouds.10 mph100%29.89 "HgN/A
9:00 PM77 °FPassing clouds.9 mph100%29.89 "HgN/A
8:00 PM77 °FPassing clouds.7 mph100%29.89 "HgN/A
7:00 PM79 °FPassing clouds.7 mph100%29.89 "HgN/A
6:00 PM79 °FBroken clouds.9 mph100%29.86 "HgN/A
5:00 PM81 °FBroken clouds.10 mph94%29.86 "HgN/A
4:00 PM82 °FBroken clouds.9 mph89%29.86 "HgN/A
3:00 PM82 °FBroken clouds.12 mph89%29.86 "HgN/A
2:00 PM82 °FBroken clouds.8 mph94%29.89 "HgN/A
1:00 PM81 °FBroken clouds.7 mph100%29.92 "HgN/A
12:00 PM81 °FLight rain. Broken clouds.6 mph100%29.95 "Hg5 mi
11:00 AM81 °FBroken clouds.7 mph100%29.98 "Hg4 mi
10:00 AM79 °FBroken clouds.5 mph100%29.98 "Hg4 mi
Weather by CustomWeather, © 2014

See weather overviewHow to use our weather pages